Погода в Гранд Каньон Вилидж

США     36°03′25″N   112°08′12″W
темп.,
°C
ветер,
м/с
пор.,
м/с
влажн.,
%
обл.,
%
осадки,
мм/ч
давл.,
гПа
погр.,
м
31 июля, сб
сб3123:00+18ююв227414 0.2 101926
02:00+18ю226955 0.0 101921
05:00+16ююз22776 0.1 101913
08:00+20ююв115911 0.0 1019252
11:00+26ююз133899 0.0 10181708
14:00+26ююз6438100 0.2 10161753
17:00+18сз347499 5.1 1020310
20:00+18з2272100 0.6 1019139
1 августа, вс
вс123:00+18сз127352 0.6 1020116
02:00+17юв11769 0.0 102011
05:00+17вюв117165 0.0 101911
08:00+21ю12555 0.0 1019293
11:00+26юз444090 0.0 10182021
14:00+27юз453698 0.1 10162437
17:00+24сз1348100 0.2 1017998
20:00+22вюв115942 0.0 101729
2 августа, пн
пн223:00+21ююз22580 0.0 101814
02:00+20ююз11640 0.0 101811
05:00+19ююв22650 0.0 101911
08:00+23юз11510 0.0 1019313
11:00+27зсз43330 0.0 10182440
14:00+30зсз54261 0.0 10152746
17:00+30з24241 0.0 10132946
20:00+26с34310 0.0 101453
3 августа, вт
вт323:00+24с12390 0.0 101511
02:00+22сз11430 0.0 101511
05:00+21сз22450 0.0 101611
08:00+25зсз23350 0.0 1016315
11:00+30сз55220 0.0 10152196
14:00+31сз66170 0.0 10132492
17:00+31сз55150 0.0 10112562
20:00+27ссз22210 0.0 101214
4 августа, ср
ср423:00+25с22250 0.0 101311
02:00+22св11340 0.0 101411
05:00+21вюв11360 0.0 101411
08:00+26зюз11260 0.0 1015220
11:00+31сз45160 0.0 10142173
14:00+33сз65120 0.0 10122961
17:00+33сз55120 0.0 10103035
20:00+28с33160 0.0 101115